Angel Fire, NM

3:35 PM MST on December 07, 2019 (GMT -0700)
Angel Fire

Weather History for KAXX - October, 2019

Change the Weather History Date:

Sunday, October 6, 2019

  Actual Average (KSKX) Record (KSKX)
Temperature  
Mean Temperature 44 °F -  
Max Temperature 63 °F 66 °F 75 °F (1996)
Min Temperature 25 °F 32 °F 21 °F (1998)
Degree Days  
Heating Degree Days 21    
Moisture  
Dew Point 14 °F    
Average Humidity 33    
Maximum Humidity 88    
Minimum Humidity 14    
Precipitation  
Precipitation 0.00 in - - ()
Sea Level Pressure  
Sea Level Pressure 30.37 in    
Wind  
Wind Speed 7 mph (SSW)    
Max Wind Speed 21 mph    
Max Gust Speed 28 mph    
Visibility 10 miles    
Events      
Averages and records for this station are not official NWS values.
T = Trace of Precipitation, MM = Missing Value Source: NWS Daily Summary

Daily Weather History Graph

Daily Weather History Graph

Search for Another Location

Airport or City:

Astronomy

Oct. 06, 2019 Rise Set
Actual Time 7:00 AM MDT 6:37 PM MDT
Civil Twilight 6:34 AM MDT 7:03 PM MDT
Nautical Twilight 6:04 AM MDT 7:33 PM MDT
Astronomical Twilight 5:34 AM MDT 8:03 PM MDT
Moon 3:06 PM MDT (10/6) 12:13 AM MDT (10/6)
Length of Visible Light 12h 28m
Length of Day
11h 37m
First Quarter, 60% of the Moon is Illuminated
Oct 6
First Quarter
Oct 13
Full
Oct 21
Last Quarter
Oct 27
New
Nov 4
First Quarter

Hourly Weather History & Observations

Time (MDT) Temp. Windchill Dew Point Humidity Pressure Visibility Wind Dir Wind Speed Gust Speed Precip Events Conditions
12:15 AM 46.9 °F - 3.2 °F 17% 30.25 in 10.0 mi South 6.9 mph - N/A   Clear
12:35 AM 46.9 °F - 3.4 °F 17% 30.26 in 10.0 mi South 12.7 mph 19.6 mph N/A   Clear
12:55 AM 46.9 °F - 2.7 °F 16% 30.26 in 10.0 mi South 13.8 mph 23.0 mph N/A   Clear
1:15 AM 45.7 °F 39.8 °F 4.1 °F 18% 30.26 in 10.0 mi SSE 12.7 mph - N/A   Clear
1:35 AM 44.8 °F 41.0 °F 2.5 °F 17% 30.26 in 10.0 mi SSE 6.9 mph - N/A   Clear
1:55 AM 39.2 °F - 7.7 °F 27% 30.26 in 10.0 mi Calm Calm - N/A   Clear
2:15 AM 39.6 °F - 8.6 °F 28% 30.26 in 10.0 mi Calm Calm - N/A   Clear
2:35 AM 39.9 °F 36.7 °F 6.6 °F 25% 30.26 in 10.0 mi East 4.6 mph - N/A   Clear
2:55 AM 39.4 °F - 7.2 °F 26% 30.26 in 10.0 mi Calm Calm - N/A   Clear
3:15 AM 41.5 °F - 5.4 °F 22% 30.26 in 10.0 mi Calm Calm - N/A   Clear
3:35 AM 45.3 °F - 2.8 °F 17% 30.26 in 10.0 mi Calm Calm - N/A   Clear
3:55 AM 42.8 °F 38.6 °F 7.2 °F 23% 30.26 in 10.0 mi SW 6.9 mph - N/A   Clear
4:15 AM 44.4 °F 40.0 °F 5.4 °F 20% 30.26 in 10.0 mi SW 8.1 mph 20.7 mph N/A   Clear
4:35 AM 45.0 °F 39.7 °F 4.5 °F 19% 30.27 in 10.0 mi WSW 10.4 mph 17.3 mph N/A   Clear
4:55 AM 42.1 °F 37.1 °F 6.1 °F 23% 30.27 in 10.0 mi SW 8.1 mph - N/A   Clear
5:15 AM 42.3 °F 39.4 °F 5.4 °F 22% 30.27 in 10.0 mi SW 4.6 mph - N/A   Clear
5:35 AM 43.3 °F - 4.8 °F 20% 30.27 in 10.0 mi Calm Calm - N/A   Clear
5:55 AM 39.9 °F 37.8 °F 8.1 °F 27% 30.28 in 10.0 mi South 3.5 mph - N/A   Clear
6:15 AM 38.3 °F - 8.1 °F 29% 30.29 in 10.0 mi Calm Calm - N/A   Clear
6:35 AM 36.0 °F - 10.6 °F 35% 30.29 in 10.0 mi Calm Calm - N/A   Clear
6:55 AM 34.0 °F 31.0 °F 12.4 °F 41% 30.30 in 10.0 mi SW 3.5 mph - N/A   Clear
7:15 AM 32.5 °F - 14.2 °F 47% 30.31 in 10.0 mi Calm Calm - N/A   Clear
7:35 AM 30.0 °F - 16.0 °F 56% 30.31 in 10.0 mi Calm Calm - N/A   Clear
7:55 AM 35.8 °F - 16.5 °F 46% 30.32 in 10.0 mi Calm Calm - N/A   Clear
8:15 AM 42.6 °F 40.9 °F 15.4 °F 33% 30.33 in 10.0 mi WNW 3.5 mph - N/A   Clear
8:35 AM 47.7 °F - 7.0 °F 19% 30.33 in 10.0 mi Calm Calm - N/A   Clear
8:55 AM 51.8 °F - 6.1 °F 16% 30.33 in 10.0 mi South 3.5 mph - N/A   Clear
9:15 AM 53.4 °F - 7.2 °F 16% 30.35 in 10.0 mi Calm Calm - N/A   Clear
9:35 AM 54.5 °F - 7.3 °F 15% 30.35 in 10.0 mi WSW 8.1 mph - N/A   Clear
9:55 AM 56.3 °F - 9.9 °F 16% 30.35 in 10.0 mi WSW 10.4 mph 17.3 mph N/A   Clear
10:15 AM 56.8 °F - 9.1 °F 15% 30.35 in 10.0 mi WSW 13.8 mph - N/A   Clear
10:35 AM 57.9 °F - 10.9 °F 16% 30.35 in 10.0 mi WSW 11.5 mph - N/A   Clear
10:55 AM 59.0 °F - 10.9 °F 15% 30.35 in 10.0 mi WSW 16.1 mph - N/A   Clear
11:15 AM 59.5 °F - 10.9 °F 15% 30.35 in 10.0 mi WSW 16.1 mph - N/A   Clear
11:35 AM 59.7 °F - 9.9 °F 14% 30.35 in 10.0 mi SW 17.3 mph 21.9 mph N/A   Clear
11:55 AM 60.6 °F - 11.1 °F 14% 30.36 in 10.0 mi West 16.1 mph 23.0 mph N/A   Clear
12:15 PM 60.8 °F - 11.1 °F 14% 30.36 in 10.0 mi WSW 15.0 mph 24.2 mph N/A   Clear
12:35 PM 61.3 °F - 12.6 °F 15% 30.37 in 10.0 mi SW 13.8 mph 20.7 mph N/A   Clear
12:55 PM 62.1 °F - 13.1 °F 15% 30.37 in 10.0 mi SW 11.5 mph 19.6 mph N/A   Clear
1:15 PM 61.7 °F - 12.7 °F 15% 30.37 in 10.0 mi West 15.0 mph 20.7 mph N/A   Clear
1:40 PM 62.2 °F - 14.0 °F 15% 30.37 in 10.0 mi WSW 15.0 mph 19.6 mph N/A   Clear
1:55 PM 62.2 °F - 12.7 °F 14% 30.36 in 10.0 mi West 16.1 mph 19.6 mph N/A   Clear
2:20 PM 62.6 °F - 14.7 °F 16% 30.36 in 10.0 mi West 10.4 mph 20.7 mph N/A   Clear
2:35 PM 62.8 °F - 13.1 °F 14% 30.36 in 10.0 mi West 10.4 mph 16.1 mph N/A   Clear
2:55 PM 63.0 °F - 13.8 °F 15% 30.36 in 10.0 mi WNW 12.7 mph 18.4 mph N/A   Clear
3:15 PM 63.7 °F - 21.6 °F 20% 30.37 in 10.0 mi SE 12.7 mph 23.0 mph N/A   Clear
3:35 PM 61.2 °F - 21.4 °F 22% 30.38 in 10.0 mi SE 13.8 mph 20.7 mph N/A   Clear
3:55 PM 59.9 °F - 20.8 °F 22% 30.38 in 10.0 mi ESE 16.1 mph 25.3 mph N/A   Clear
4:15 PM 59.5 °F - 21.0 °F 23% 30.39 in 10.0 mi ESE 16.1 mph 25.3 mph N/A   Clear
4:35 PM 57.7 °F - 20.3 °F 23% 30.40 in 10.0 mi East 20.7 mph 27.6 mph N/A   Clear
4:55 PM 56.3 °F - 20.5 °F 25% 30.42 in 10.0 mi East 19.6 mph - N/A   Clear
5:15 PM 55.4 °F - 21.0 °F 26% 30.42 in 10.0 mi East 13.8 mph 21.9 mph N/A   Clear
5:35 PM 53.8 °F - 20.8 °F 28% 30.43 in 10.0 mi ESE 17.3 mph - N/A   Clear
5:55 PM 52.5 °F - 21.0 °F 29% 30.44 in 10.0 mi ESE 10.4 mph - N/A   Clear
6:15 PM 50.4 °F - 20.8 °F 31% 30.44 in 10.0 mi ESE 13.8 mph - N/A   Clear
6:35 PM 48.4 °F - 21.2 °F 34% 30.45 in 10.0 mi ESE 11.5 mph 17.3 mph N/A   Clear
6:55 PM 46.6 °F - 21.7 °F 37% 30.45 in 10.0 mi ESE 11.5 mph - N/A   Clear
7:15 PM 45.3 °F 39.3 °F 21.9 °F 40% 30.46 in 10.0 mi ESE 12.7 mph - N/A   Clear
7:35 PM 44.8 °F 41.6 °F 21.6 °F 40% 30.47 in 10.0 mi SSE 5.8 mph - N/A   Clear
7:55 PM 37.6 °F 35.1 °F 25.0 °F 60% 30.47 in 10.0 mi WSW 3.5 mph - N/A   Clear
8:15 PM 35.6 °F 32.8 °F 25.2 °F 66% 30.48 in 10.0 mi West 3.5 mph - N/A   Clear
8:35 PM 32.9 °F 28.5 °F 25.5 °F 74% 30.49 in 10.0 mi WSW 4.6 mph - N/A   Clear
8:55 PM 34.5 °F - 24.6 °F 67% 30.49 in 10.0 mi Calm Calm - N/A   Clear
9:15 PM 32.0 °F - 24.4 °F 74% 30.50 in 10.0 mi Calm Calm - N/A   Clear
9:35 PM 32.4 °F - 25.2 °F 75% 30.50 in 10.0 mi Calm Calm - N/A   Clear
9:55 PM 32.2 °F - 24.8 °F 74% 30.50 in 10.0 mi Calm Calm - N/A   Clear
10:15 PM 27.7 °F - 24.1 °F 86% 30.50 in 10.0 mi Calm Calm - N/A   Clear
10:35 PM 28.9 °F - 24.6 °F 84% 30.50 in 10.0 mi Calm Calm - N/A   Clear
10:55 PM 27.9 °F 24.0 °F 23.5 °F 84% 30.50 in 10.0 mi ENE 3.5 mph - N/A   Clear
11:15 PM 25.9 °F - 22.8 °F 88% 30.50 in 10.0 mi Calm Calm - N/A   Clear
11:35 PM 26.6 °F - 23.2 °F 87% 30.50 in 10.0 mi Calm Calm - N/A   Clear
11:55 PM 27.0 °F - 22.3 °F 83% 30.50 in 4.0 mi Calm Calm - N/A   Haze